Le nostre stazioni meteo in Italia

Pubblicità
Il mio iltempo24.it
Messina, Italia (16420): Temperatura & dewpoint: 01.07.2020 17:00:00 - 07.07.2020 17:00:00 (CEST)Messina, Italia (16420): velocità del vento: 01.07.2020 17:00:00 - 07.07.2020 17:00:00 (CEST)Messina, Italia (16420): direzione del vento: 01.07.2020 17:00:00 - 07.07.2020 17:00:00 (CEST)Messina, Italia (16420): reduced air pressure: 01.07.2020 17:00:00 - 07.07.2020 17:00:00 (CEST)Messina, Italia (16420): visibility: 01.07.2020 17:00:00 - 07.07.2020 17:00:00 (CEST)Messina, Italia (16420): ore di luce: 01.07.2020 17:00:00 - 07.07.2020 17:00:00 (CEST)
Data & Tempo tt [°C] td [°C] ff [km/h] ff [kn] dd ppp [hPa] vv [km] sd [min]
07.07.2020 17:00:00 - - - - - - - -
07.07.2020 16:00:00 29,4 17,9 13 7 N 1009,1 25 60
07.07.2020 15:00:00 28,4 18,5 13 7 OSO 1009,1 25 60
07.07.2020 14:00:00 28,6 18,1 13 7 NNO 1009,0 25 60
07.07.2020 13:00:00 28,2 20,5 15 8 NNO 1009,0 25 60
07.07.2020 12:00:00 27,2 20,0 11 6 ONO 1008,8 25 60
07.07.2020 11:00:00 26,6 20,4 9 5 NNO 1008,3 20 60
07.07.2020 10:00:00 25,6 20,8 16 9 N 1008,2 20 60
07.07.2020 09:00:00 25,0 21,9 15 8 NO 1007,8 20 60
07.07.2020 08:00:00 23,8 21,3 13 7 ONO 1007,5 20 60
07.07.2020 07:00:00 23,0 20,3 11 6 NO 1007,3 15 6
07.07.2020 06:00:00 23,2 20,3 9 5 NO 1007,1 15 -
07.07.2020 05:00:00 23,6 20,5 15 8 NO 1006,6 15 -
07.07.2020 04:00:00 23,6 20,3 9 5 NO 1007,1 15 -
07.07.2020 03:00:00 24,0 21,3 13 7 ONO 1007,2 15 -
07.07.2020 02:00:00 24,0 21,7 18 10 ONO 1007,2 15 -
07.07.2020 01:00:00 24,0 21,7 16 9 ONO 1007,2 15 -
07.07.2020 00:00:00 24,0 21,7 18 10 ONO 1007,2 15 -
06.07.2020 23:00:00 24,2 21,9 18 10 ONO 1007,2 15 -
06.07.2020 22:00:00 24,4 22,1 15 8 NO 1007,2 15 -
06.07.2020 21:00:00 25,0 22,7 16 9 N 1007,1 15 0
06.07.2020 20:00:00 25,4 23,3 9 5 E 1006,8 15 6
06.07.2020 19:00:00 26,8 23,1 15 8 E 1006,7 15 60
06.07.2020 18:00:00 27,0 22,6 16 9 ONO 1006,8 15 60
06.07.2020 17:00:00 27,2 21,7 22 12 NO 1006,7 15 60
06.07.2020 16:00:00 28,0 22,7 16 9 N 1006,9 15 54
06.07.2020 15:00:00 26,6 22,0 18 10 NO 1007,2 15 36
06.07.2020 14:00:00 26,6 21,1 31 17 ONO 1007,3 15 6
06.07.2020 13:00:00 27,4 21,7 28 15 ONO 1007,8 15 30
06.07.2020 12:00:00 26,6 21,6 21 11 NO 1008,3 15 60
06.07.2020 11:00:00 26,0 21,4 18 10 NO 1008,3 20 60
06.07.2020 10:00:00 25,0 20,7 18 10 ONO 1008,6 15 60
06.07.2020 09:00:00 24,0 20,3 18 10 N 1008,5 12 48
06.07.2020 08:00:00 22,2 19,6 15 8 NO 1008,4 10 30
06.07.2020 07:00:00 21,8 19,9 8 4 NO 1009,3 9 -
06.07.2020 06:00:00 21,8 19,9 9 5 NO 1009,3 12 -
06.07.2020 05:00:00 21,8 19,9 5 3 N 1009,3 12 -
06.07.2020 04:00:00 22,0 20,1 8 4 N 1010,1 8 -
06.07.2020 03:00:00 22,0 20,1 11 6 NO 1010,3 8 -
06.07.2020 02:00:00 22,0 20,1 9 5 NNO 1010,8 8 -
06.07.2020 01:00:00 23,0 21,1 9 5 NNE 1011,3 10 -
06.07.2020 00:00:00 23,0 21,1 8 4 NNO 1011,4 10 -
05.07.2020 23:00:00 22,8 20,9 4 2 NNE 1011,4 10 -
05.07.2020 22:00:00 24,2 21,7 9 5 N 1011,3 16 -
05.07.2020 21:00:00 24,2 21,3 9 5 NNE 1011,2 20 -
05.07.2020 20:00:00 24,8 21,1 9 5 N 1010,7 20 0
05.07.2020 19:00:00 25,0 20,0 9 5 NNO 1011,2 20 18
05.07.2020 18:00:00 26,0 19,2 13 7 NO 1011,2 20 60
05.07.2020 17:00:00 26,0 20,1 16 9 NNE 1011,2 20 60
05.07.2020 16:00:00 26,2 21,0 16 9 NNO 1011,9 20 60
05.07.2020 15:00:00 26,2 19,8 15 8 N 1012,0 20 60
05.07.2020 14:00:00 26,2 21,2 16 9 NNO 1012,1 20 60
05.07.2020 13:00:00 25,6 19,5 22 12 SSO 1012,2 20 60
05.07.2020 12:00:00 24,0 18,9 22 12 N 1012,2 20 18
05.07.2020 11:00:00 23,0 18,3 24 13 NO 1012,2 20 0
05.07.2020 10:00:00 22,4 18,4 16 9 ONO 1012,3 16 6
05.07.2020 09:00:00 23,4 18,1 15 8 ONO 1012,2 16 24
05.07.2020 08:00:00 20,0 17,8 4 2 N 1012,3 14 60
05.07.2020 07:00:00 19,8 17,6 5 3 SSE 1012,4 10 0
05.07.2020 06:00:00 18,6 16,4 13 7 O 1013,0 6 -
05.07.2020 05:00:00 20,6 18,4 18 10 ONO 1012,0 6 -
05.07.2020 04:00:00 21,6 18,8 13 7 NO 1012,3 14 -
05.07.2020 03:00:00 21,4 18,4 9 5 NNO 1012,6 16 -
05.07.2020 02:00:00 21,4 18,6 11 6 NO 1012,8 14 -
05.07.2020 01:00:00 21,4 19,7 13 7 NO 1012,8 12 -
05.07.2020 00:00:00 21,4 19,5 11 6 NE 1012,8 12 -
04.07.2020 23:00:00 22,4 20,5 13 7 NE 1012,7 12 -
04.07.2020 22:00:00 23,6 20,3 16 9 ONO 1012,2 14 -
04.07.2020 21:00:00 23,4 20,2 22 12 ONO 1012,0 12 -
04.07.2020 20:00:00 22,2 19,4 18 10 NO 1012,0 10 0
04.07.2020 19:00:00 20,8 19,1 21 11 NO 1012,4 8 0
04.07.2020 18:00:00 25,4 23,7 4 2 N 1012,2 9 0
04.07.2020 17:00:00 27,2 23,7 11 6 N 1012,0 12 6
04.07.2020 16:00:00 29,0 23,7 11 6 NNO 1012,1 16 42
04.07.2020 15:00:00 30,0 22,4 13 7 N 1012,5 16 60
04.07.2020 14:00:00 30,2 21,3 13 7 N 1012,7 14 60
04.07.2020 13:00:00 29,6 20,7 13 7 NNE 1013,0 14 60
04.07.2020 12:00:00 29,0 23,9 13 7 NNE 1013,2 14 60
04.07.2020 11:00:00 27,8 22,3 15 8 NO 1013,2 14 60
04.07.2020 10:00:00 27,0 22,6 11 6 NO 1013,3 14 60
04.07.2020 09:00:00 26,2 22,7 11 6 NNO 1013,1 12 60
04.07.2020 08:00:00 25,0 22,7 13 7 NNO 1012,5 12 60
04.07.2020 07:00:00 24,2 22,1 11 6 NO 1012,3 12 6
04.07.2020 06:00:00 24,4 22,3 11 6 NO 1012,2 12 -
04.07.2020 05:00:00 24,2 22,1 11 6 NO 1012,3 12 -
04.07.2020 04:00:00 25,0 22,9 8 4 NO 1012,5 12 -
04.07.2020 03:00:00 25,0 22,9 9 5 NNE 1011,2 12 -
04.07.2020 02:00:00 25,0 21,9 13 7 NNO 1011,2 12 -
04.07.2020 01:00:00 25,2 22,1 11 6 NNO 1011,3 12 -
04.07.2020 00:00:00 25,2 22,7 11 6 N 1011,6 12 -
03.07.2020 23:00:00 25,2 22,7 9 5 NO 1012,3 12 -
03.07.2020 22:00:00 26,0 23,3 9 5 NO 1012,0 12 -
03.07.2020 21:00:00 26,0 23,3 9 5 N 1011,3 12 -
03.07.2020 20:00:00 26,6 24,1 9 5 NNE 1011,0 12 18
03.07.2020 19:00:00 28,4 25,0 9 5 N 1010,5 14 60
03.07.2020 18:00:00 29,4 25,0 11 6 N 1010,1 16 60
03.07.2020 17:00:00 29,6 24,2 15 8 NO 1010,3 16 60
03.07.2020 16:00:00 31,0 23,9 11 6 ENE 1010,5 16 60
03.07.2020 15:00:00 29,8 24,2 13 7 NNE 1010,8 16 60
03.07.2020 14:00:00 29,6 24,5 18 10 NE 1011,1 16 60
03.07.2020 13:00:00 29,6 24,0 13 7 N 1011,1 16 60
03.07.2020 12:00:00 29,0 23,0 13 7 NNO 1010,8 16 60
03.07.2020 11:00:00 28,4 22,6 15 8 N 1010,5 16 60
03.07.2020 10:00:00 27,4 23,2 16 9 N 1010,4 16 60
03.07.2020 09:00:00 26,4 23,9 16 9 N 1010,3 16 60
03.07.2020 08:00:00 25,6 23,5 13 7 NNO 1010,0 16 60
03.07.2020 07:00:00 25,0 22,9 13 7 NNE 1009,6 16 0
03.07.2020 06:00:00 25,0 22,9 11 6 NNO 1009,5 16 -
03.07.2020 05:00:00 25,0 22,9 9 5 N 1009,5 16 -
03.07.2020 04:00:00 25,0 22,9 11 6 NNO 1009,6 16 -
03.07.2020 03:00:00 25,0 22,9 16 9 NO 1010,0 16 -
03.07.2020 02:00:00 25,0 22,9 16 9 NO 1010,2 16 -
03.07.2020 01:00:00 25,2 23,3 16 9 NNO 1010,2 16 -
03.07.2020 00:00:00 26,0 23,9 15 8 NNO 1010,2 16 -
02.07.2020 23:00:00 26,2 22,7 13 7 NNO 1010,0 16 -
02.07.2020 22:00:00 26,6 23,5 11 6 NNO 1009,4 16 -
02.07.2020 21:00:00 27,2 22,8 8 4 NNE 1009,6 20 -
02.07.2020 20:00:00 28,0 22,0 9 5 NNE 1009,5 20 36
02.07.2020 19:00:00 29,4 22,6 16 9 NO 1009,5 20 60
02.07.2020 18:00:00 30,8 21,6 9 5 NO 1009,6 20 60
02.07.2020 17:00:00 30,4 20,0 5 3 NNE 1009,4 20 60
02.07.2020 16:00:00 31,2 18,9 9 5 ENE 1009,8 20 60
02.07.2020 15:00:00 30,0 20,8 8 4 NE 1010,1 20 60
02.07.2020 14:00:00 30,4 21,2 9 5 NNE 1010,1 20 60
02.07.2020 13:00:00 29,8 21,5 16 9 NE 1010,4 20 60
02.07.2020 12:00:00 30,4 18,2 15 8 NE 1010,5 20 60
02.07.2020 11:00:00 29,0 19,4 15 8 NE 1010,7 20 60
02.07.2020 10:00:00 29,0 19,6 13 7 NE 1010,8 18 60
02.07.2020 09:00:00 27,8 20,4 13 7 NE 1010,8 16 60
02.07.2020 08:00:00 26,8 19,9 8 4 NE 1011,0 16 60
02.07.2020 07:00:00 25,0 16,4 5 3 N 1011,0 16 24
02.07.2020 06:00:00 23,8 21,5 5 3 NNE 1011,1 20 -
02.07.2020 05:00:00 24,0 20,3 5 3 NE 1011,2 20 -
02.07.2020 04:00:00 23,8 21,3 4 2 NNE 1011,2 20 -
02.07.2020 03:00:00 24,0 22,3 4 2 N 1011,4 20 -
02.07.2020 02:00:00 24,2 22,5 8 4 NE 1012,1 20 -
02.07.2020 01:00:00 25,0 17,7 4 2 N 1012,0 20 -
02.07.2020 00:00:00 25,0 22,5 8 4 NE 1012,1 20 -
01.07.2020 23:00:00 25,8 16,7 5 3 N 1012,1 20 -
01.07.2020 22:00:00 25,8 20,1 5 3 ENE 1012,0 20 -
01.07.2020 21:00:00 26,2 19,6 8 4 NE 1011,6 20 -
01.07.2020 20:00:00 27,2 21,2 4 2 NNE 1011,9 20 36
01.07.2020 19:00:00 28,8 23,9 11 6 NNE 1012,0 20 60
01.07.2020 18:00:00 30,0 21,4 9 5 NNE 1012,2 20 60
01.07.2020 17:00:00 28,6 22,6 13 7 NE 1012,0 20 60

tt = Temperatura
td = dewpoint
ff = velocità del vento
dd = direzione del vento
ppp = reduced air pressure
vv = visibility
sd = ore di luce

Stazioni seguenti

WeatherPro
AMSI
MeteoEarth